When you browse on this site, cookies collect data to enhance your experience and personalize the content and advertising you see.
Visit our Privacy Policy to learn more. By continuing to use the site, you agree to this use of cookies and data.
  • In Österreich
  • Länderverzeichnis
  • Für 7 Tage
  • Wassertemperatur
  • Satellitenkarten
  • Wetterkarte
  • News
  • Widgets
  • user-avatar
    Anmelden

    Stündliche Wetter Santiago del Estero

    Heute, 25 Juni, Dienstag

    Zeit Temperatur Niederschläge Wind Luftdruck Luftfeuchtigkeit
    00:00 +19°C° 0 mm 5 m/S 733 mmHg 80%
    01:00 +19°C° 0 mm 6 m/S 734 mmHg 83%
    02:00 +17°C° 0 mm 7 m/S 735 mmHg 85%
    03:00 +17°C° 0.2 mm 8 m/S 736 mmHg 82%
    04:00 +17°C° 0.2 mm 9 m/S 738 mmHg 78%
    05:00 +17°C° 0.2 mm 9 m/S 739 mmHg 75%
    06:00 +14°C° 0.3 mm 10 m/S 741 mmHg 66%
    07:00 +12°C° 0.3 mm 10 m/S 743 mmHg 58%
    08:00 +9°C° 0.3 mm 10 m/S 745 mmHg 50%
    09:00 +11°C° 0 mm 8 m/S 746 mmHg 46%
    10:00 +11°C° 0 mm 7 m/S 747 mmHg 43%
    11:00 +12°C° 0 mm 5 m/S 748 mmHg 40%
    12:00 +14°C° 0 mm 5 m/S 748 mmHg 34%
    13:00 +15°C° 0 mm 5 m/S 747 mmHg 29%
    14:00 +17°C° 0 mm 4 m/S 747 mmHg 23%
    15:00 +17°C° 0 mm 4 m/S 747 mmHg 24%
    16:00 +16°C° 0 mm 3 m/S 746 mmHg 26%
    17:00 +15°C° 0 mm 2 m/S 746 mmHg 27%
    18:00 +14°C° 0 mm 2 m/S 747 mmHg 27%
    19:00 +12°C° 0 mm 2 m/S 747 mmHg 27%
    20:00 +10°C° 0 mm 2 m/S 747 mmHg 27%
    21:00 +9°C° 0 mm 2 m/S 747 mmHg 28%
    22:00 +9°C° 0 mm 1 m/S 747 mmHg 29%
    23:00 +9°C° 0 mm 1 m/S 747 mmHg 31%

    Morgen, 26 Juni, Mittwoch

    Zeit Temperatur Niederschläge Wind Luftdruck Luftfeuchtigkeit
    00:00 +8°C° 0 mm 1 m/S 747 mmHg 32%
    01:00 +8°C° 0 mm 1 m/S 746 mmHg 33%
    02:00 +6°C° 0 mm 2 m/S 746 mmHg 35%
    03:00 +6°C° 0 mm 2 m/S 745 mmHg 36%
    04:00 +6°C° 0 mm 2 m/S 745 mmHg 38%
    05:00 +6°C° 0 mm 2 m/S 744 mmHg 39%
    06:00 +6°C° 0 mm 2 m/S 744 mmHg 40%
    07:00 +6°C° 0 mm 2 m/S 745 mmHg 42%
    08:00 +6°C° 0 mm 2 m/S 745 mmHg 43%
    09:00 +8°C° 0 mm 3 m/S 745 mmHg 39%
    10:00 +10°C° 0 mm 4 m/S 744 mmHg 34%
    11:00 +13°C° 0 mm 4 m/S 744 mmHg 29%
    12:00 +14°C° 0 mm 5 m/S 743 mmHg 27%
    13:00 +15°C° 0 mm 5 m/S 742 mmHg 25%
    14:00 +16°C° 0 mm 5 m/S 741 mmHg 22%
    15:00 +15°C° 0 mm 4 m/S 740 mmHg 25%
    16:00 +16°C° 0 mm 3 m/S 740 mmHg 27%
    17:00 +14°C° 0 mm 3 m/S 739 mmHg 29%
    18:00 +13°C° 0 mm 3 m/S 740 mmHg 32%
    19:00 +12°C° 0 mm 3 m/S 740 mmHg 34%
    20:00 +11°C° 0 mm 3 m/S 740 mmHg 36%
    21:00 +10°C° 0 mm 3 m/S 740 mmHg 39%
    22:00 +10°C° 0 mm 3 m/S 740 mmHg 41%
    23:00 +9°C° 0 mm 3 m/S 741 mmHg 44%

    übermorgen, 27 Juni, Donnerstag

    Zeit Temperatur Niederschläge Wind Luftdruck Luftfeuchtigkeit
    00:00 +9°C° 0 mm 3 m/S 740 mmHg 46%
    01:00 +8°C° 0 mm 3 m/S 740 mmHg 48%
    02:00 +8°C° 0 mm 3 m/S 739 mmHg 50%
    03:00 +8°C° 0 mm 3 m/S 739 mmHg 52%
    04:00 +7°C° 0 mm 3 m/S 739 mmHg 53%
    05:00 +7°C° 0 mm 3 m/S 738 mmHg 55%
    06:00 +7°C° 0 mm 3 m/S 738 mmHg 55%
    07:00 +7°C° 0 mm 3 m/S 739 mmHg 56%
    08:00 +7°C° 0 mm 3 m/S 739 mmHg 57%
    09:00 +10°C° 0 mm 4 m/S 739 mmHg 53%
    10:00 +12°C° 0 mm 5 m/S 738 mmHg 49%
    11:00 +15°C° 0 mm 6 m/S 738 mmHg 45%
    12:00 +16°C° 0 mm 6 m/S 737 mmHg 43%
    13:00 +19°C° 0 mm 6 m/S 736 mmHg 42%
    14:00 +20°C° 0 mm 6 m/S 735 mmHg 40%
    15:00 +20°C° 0 mm 5 m/S 735 mmHg 43%
    16:00 +20°C° 0 mm 4 m/S 734 mmHg 45%
    17:00 +19°C° 0 mm 3 m/S 734 mmHg 48%
    18:00 +18°C° 0 mm 3 m/S 734 mmHg 52%
    19:00 +17°C° 0 mm 4 m/S 735 mmHg 56%
    20:00 +15°C° 0 mm 4 m/S 735 mmHg 60%
    21:00 +14°C° 0 mm 4 m/S 735 mmHg 64%
    22:00 +14°C° 0 mm 3 m/S 735 mmHg 67%
    23:00 +13°C° 0 mm 3 m/S 734 mmHg 70%

    28 Juni, Freitag

    Zeit Temperatur Niederschläge Wind Luftdruck Luftfeuchtigkeit
    00:00 +12°C° 0 mm 3 m/S 734 mmHg 75%
    01:00 +12°C° 0 mm 3 m/S 734 mmHg 80%
    02:00 +12°C° 0 mm 2 m/S 734 mmHg 86%
    03:00 +12°C° 0 mm 2 m/S 734 mmHg 88%
    04:00 +12°C° 0 mm 2 m/S 733 mmHg 91%
    05:00 +12°C° 0 mm 2 m/S 733 mmHg 93%
    06:00 +12°C° 0 mm 2 m/S 733 mmHg 94%
    07:00 +12°C° 0 mm 1 m/S 733 mmHg 94%
    08:00 +12°C° 0 mm 1 m/S 734 mmHg 94%
    09:00 +14°C° 0 mm 1 m/S 734 mmHg 84%
    10:00 +18°C° 0 mm 1 m/S 734 mmHg 74%
    11:00 +19°C° 0 mm 2 m/S 734 mmHg 64%
    12:00 +20°C° 0 mm 2 m/S 733 mmHg 57%
    13:00 +23°C° 0 mm 2 m/S 733 mmHg 51%
    14:00 +24°C° 0 mm 1 m/S 732 mmHg 45%
    15:00 +24°C° 0 mm 1 m/S 732 mmHg 47%
    16:00 +23°C° 0 mm 1 m/S 732 mmHg 50%
    17:00 +22°C° 0 mm 1 m/S 732 mmHg 52%
    18:00 +20°C° 0 mm 2 m/S 733 mmHg 59%
    19:00 +19°C° 0 mm 2 m/S 734 mmHg 66%
    20:00 +18°C° 0 mm 3 m/S 734 mmHg 73%
    21:00 +17°C° 0 mm 3 m/S 734 mmHg 79%
    22:00 +17°C° 0 mm 3 m/S 735 mmHg 85%
    23:00 +16°C° 0 mm 3 m/S 735 mmHg 90%

    29 Juni, Samstag

    Zeit Temperatur Niederschläge Wind Luftdruck Luftfeuchtigkeit
    00:00 +16°C° 0 mm 3 m/S 735 mmHg 90%
    01:00 +14°C° 0 mm 3 m/S 735 mmHg 90%
    02:00 +14°C° 0 mm 3 m/S 735 mmHg 90%
    03:00 +14°C° 0 mm 3 m/S 735 mmHg 91%
    04:00 +14°C° 0 mm 3 m/S 736 mmHg 93%
    05:00 +13°C° 0 mm 3 m/S 736 mmHg 94%
    06:00 +14°C° 0 mm 3 m/S 736 mmHg 92%
    07:00 +14°C° 0 mm 3 m/S 737 mmHg 90%
    08:00 +15°C° 0 mm 4 m/S 738 mmHg 88%
    09:00 +15°C° 0 mm 4 m/S 738 mmHg 85%
    10:00 +17°C° 0 mm 4 m/S 739 mmHg 82%
    11:00 +16°C° 0 mm 5 m/S 739 mmHg 78%
    12:00 +17°C° 0 mm 5 m/S 739 mmHg 76%
    13:00 +17°C° 0 mm 5 m/S 739 mmHg 73%
    14:00 +19°C° 0 mm 5 m/S 739 mmHg 70%
    15:00 +19°C° 0 mm 4 m/S 739 mmHg 66%
    16:00 +20°C° 0 mm 4 m/S 739 mmHg 62%
    17:00 +20°C° 0 mm 3 m/S 740 mmHg 57%
    18:00 +18°C° 0 mm 3 m/S 740 mmHg 59%
    19:00 +17°C° 0 mm 3 m/S 741 mmHg 60%
    20:00 +16°C° 0 mm 3 m/S 742 mmHg 61%
    21:00 +14°C° 0 mm 3 m/S 742 mmHg 64%
    22:00 +14°C° 0 mm 2 m/S 743 mmHg 67%
    23:00 +14°C° 0 mm 2 m/S 743 mmHg 70%

    30 Juni, Sonntag

    Zeit Temperatur Niederschläge Wind Luftdruck Luftfeuchtigkeit
    00:00 +13°C° 0 mm 2 m/S 743 mmHg 73%
    01:00 +12°C° 0 mm 3 m/S 743 mmHg 75%
    02:00 +12°C° 0 mm 3 m/S 743 mmHg 78%
    03:00 +11°C° 0 mm 3 m/S 743 mmHg 80%
    04:00 +11°C° 0 mm 3 m/S 743 mmHg 83%
    05:00 +10°C° 0 mm 2 m/S 743 mmHg 85%
    06:00 +10°C° 0 mm 2 m/S 744 mmHg 85%
    07:00 +10°C° 0 mm 2 m/S 744 mmHg 85%
    08:00 +10°C° 0 mm 2 m/S 745 mmHg 85%
    09:00 +13°C° 0 mm 2 m/S 745 mmHg 77%
    10:00 +13°C° 0 mm 3 m/S 745 mmHg 69%
    11:00 +16°C° 0 mm 3 m/S 745 mmHg 60%
    12:00 +17°C° 0 mm 3 m/S 744 mmHg 56%
    13:00 +18°C° 0 mm 3 m/S 743 mmHg 52%
    14:00 +19°C° 0 mm 3 m/S 743 mmHg 48%
    15:00 +18°C° 0 mm 3 m/S 742 mmHg 49%
    16:00 +18°C° 0 mm 3 m/S 742 mmHg 51%
    17:00 +17°C° 0 mm 3 m/S 741 mmHg 52%
    18:00 +16°C° 0 mm 3 m/S 742 mmHg 58%
    19:00 +14°C° 0 mm 3 m/S 742 mmHg 64%
    20:00 +12°C° 0 mm 3 m/S 742 mmHg 70%
    21:00 +12°C° 0 mm 3 m/S 742 mmHg 74%
    22:00 +12°C° 0 mm 2 m/S 742 mmHg 78%
    23:00 +10°C° 0 mm 2 m/S 742 mmHg 82%
    Mehr zeigen